Location: Bresles
(49.4104°N, 2.2502°E)
Time: 00:59:02
(UTC+00:00)

Daily predictions for brighter satellites

Satellite Brightness Start Highest point End
(mag) Time Altitude Azimuth Time Altitude Azimuth Time Altitude Azimuth
ACS3 Solar Sail 4.0 02:01:11 10° NE 02:03:45 18° ENE 02:03:45 18° ENE
ADEOS Rocket 4.3 02:33:39 10° NNE 02:38:45 41° ENE 02:38:45 41° ENE
BREEZE-M DEB (TANK) 4.5 02:53:28 76° SE 02:53:28 76° SE 03:12:49 10° ESE
Cosmos 2219 Rocket 3.9 02:55:06 30° ENE 02:55:06 30° ENE 02:58:39 10° NE
USA 267 3.4 03:14:12 10° ENE 03:20:18 65° ESE 03:20:18 65° ESE
Cosmos 1980 Rocket 4.5 03:27:56 13° N 03:27:56 13° N 03:29:00 10° N
H-2A R/B 4.0 03:26:42 10° NNE 03:28:05 19° NNE 03:28:05 19° NNE
USA 238 DEB 4.2 03:33:04 45° N 03:33:04 45° N 03:38:31 10° NE
USA 238 4.2 03:33:10 45° N 03:33:10 45° N 03:38:38 10° NE
Cosmos 2278 Rocket 3.8 03:29:48 22° N 03:32:20 30° NE 03:37:17 10° ESE
Cosmos 2333 Rocket 3.3 03:39:30 35° N 03:39:30 35° N 03:42:54 10° NNE
COSMOS 2455 3.3 03:45:06 52° N 03:45:06 52° N 03:49:51 10° NNE
ADEOS II 4.3 03:38:58 10° N 03:39:55 15° N 03:39:55 15° N
Lacrosse 5 rocket 4.0 03:46:58 13° NE 03:46:58 13° NE 03:47:22 10° NE
Cosmos 2298 Rocket 4.5 03:46:57 58° NE 03:46:57 58° NE 03:51:17 10° NNE
ACS3 Solar Sail 2.1 03:43:14 10° N 03:47:53 55° N 03:47:53 55° N
BlueWalker 3 4.3 03:53:51 20° ESE 03:53:51 20° ESE 03:55:03 10° ESE
Resurs 1-4 Rocket 4.5 03:47:55 10° N 03:48:14 11° N 03:48:14 11° N
CENTAUR R/B 4.3 03:52:18 23° NNW 03:55:31 31° NNE 04:02:58 10° ENE
Cosmos 2360 Rocket 2.9 03:59:09 42° N 03:59:09 42° N 04:03:14 10° NNE
Cosmos 2322 Rocket 3.0 03:59:31 38° N 03:59:31 38° N 04:03:25 10° NNE
USA 234 3.1 03:51:55 10° SE 03:58:27 69° SW 03:58:53 67° WSW
Gbstr 26 Del rocket 4.3 03:59:16 38° SSE 03:59:47 39° SE 04:05:03 10° ENE
SL-16 R/B 3.6 04:06:02 25° NNW 04:06:02 25° NNW 04:09:11 10° NNE
Cosmos 44 Rocket 3.5 04:05:02 71° NNE 04:05:18 73° NE 04:10:27 10° SE
Cosmos 1943 Rocket 2.9 04:06:17 23° NNW 04:09:36 50° NE 04:14:56 10° SE
Meteor 2-14 Rocket 4.5 04:05:49 10° S 04:11:54 78° E 04:18:00 10° NNE
Okean 1-7 3.8 04:13:10 44° NNE 04:13:10 44° NNE 04:16:09 10° NNE
H-2A R/B 4.4 04:08:40 10° NNE 04:11:15 38° NE 04:11:15 38° NE
ARGOS 3.0 04:09:37 10° NNE 04:15:04 81° WNW 04:16:17 55° SSW
PAYLOAD A 4.2 04:10:27 10° NNE 04:15:54 79° ESE 04:20:29 14° S
Cosmos 1908 Rocket 4.5 04:11:42 10° N 04:16:02 48° ENE 04:20:19 10° SSE
Cosmos 1140 Rocket 3.5 04:15:55 39° NNW 04:17:51 78° ENE 04:22:56 10° SSE
NOSS 2-1 (D) 4.3 04:19:05 35° E 04:19:05 35° E 04:21:16 10° NE
Timation 2 Rocket 4.2 04:14:49 21° NNW 04:19:36 77° ENE 04:26:02 10° SE
CZ-2C R/B 2.3 04:15:25 10° NNE 04:20:25 81° WNW 04:21:33 55° SSW
Cosmos 1809 Rocket 4.3 04:17:42 10° S 04:23:49 84° W 04:29:58 10° N
ADEOS Rocket 3.5 04:19:18 10° N 04:25:21 44° WNW 04:25:40 44° WNW
NOSS 3-1 (C) 3.1 04:27:25 39° SSW 04:29:11 72° SE 04:34:52 10° NE
Iridium 4 Rocket 4.1 04:27:12 10° N 04:31:26 44° E 04:35:25 10° SSE
SJ 16-02 3.9 04:28:39 10° N 04:31:37 18° NE 04:34:35 10° E
Cosmos 2100 Rocket 3.8 04:25:41 10° NNW 04:31:50 80° W 04:37:59 10° S
Cosmos 2219 Rocket 2.4 04:36:49 45° WNW 04:37:21 47° NW 04:42:50 10° NNE
SL-24 R/B - RUBIN 2 4.0 04:39:22 50° W 04:40:17 57° NW 04:45:07 10° NE
IRS-1D 4.2 04:35:33 10° NNE 04:40:26 54° E 04:45:15 10° S
TIMED 4.3 04:40:17 39° NNW 04:41:51 90° E 04:46:07 10° SSE
COSMOS 2428 2.7 04:41:30 10° SSW 04:47:09 88° ESE 04:52:53 10° NNE
USA 59 Rocket -0.9 04:50:48 73° N 04:50:48 73° N 04:53:34 10° NE
SL-08 RB Rocket 3.8 04:47:34 10° N 04:52:00 50° WNW 04:53:29 35° WSW
Cosmos 1459 Rocket 4.0 04:46:44 10° NNW 04:53:02 64° W 04:59:17 10° S
Cosmos 1864 Rocket 4.4 04:47:40 10° N 04:53:58 80° W 05:00:17 10° S
Cosmos 2322 3.6 04:50:01 16° SW 04:54:37 73° WNW 05:00:19 10° NNE
FengYun 1-2 T 4.2 04:51:26 10° NNE 04:57:01 87° WNW 05:02:37 10° SSW
COSMO-SKYMED 1 2.8 04:54:54 10° SSE 04:58:59 65° ENE 05:03:05 10° N
Meteor 2-21 4.4 04:53:28 10° SSW 04:59:30 63° WNW 05:05:33 10° N
Cosmos 407 Rocket 3.4 04:54:47 11° NNW 04:59:48 90° WSW 05:04:54 10° SSE
SKYMED 2 3.5 04:55:56 10° SSE 05:00:17 89° WSW 05:04:40 10° NNW
Cosmos 1727 Rocket 4.2 04:56:14 10° SW 05:02:08 46° WNW 05:08:07 10° N
Cosmos 2228 Rocket 3.6 05:03:28 34° WNW 05:03:28 34° WNW 05:07:20 10° N
Cosmos 1725 Rocket 3.9 04:57:11 10° NNW 05:03:30 76° W 05:09:48 10° S
USA 267 3.4 04:57:20 10° ENE 05:03:44 60° NNW 05:07:39 25° W
Cosmos 1980 4.2 05:01:24 10° SSW 05:06:57 62° ESE 05:12:32 10° NE
H-2A R/B 3.9 05:07:31 10° NNW 05:08:34 13° NNW 05:08:34 13° NNW
Cosmos 1802 Rocket 4.0 05:05:05 10° NNW 05:11:22 61° W 05:17:32 10° S
NOSS 3-1 (A) 3.3 05:08:41 10° SSW 05:13:20 66° SE 05:19:00 10° NE
Cosmos 2233 Rocket 4.0 05:08:22 10° N 05:14:45 88° W 05:21:02 10° S
Cosmos 1328 3.8 05:12:50 10° SSW 05:16:19 44° WNW 05:19:51 10° N
Cosmos 2278 Rocket 2.2 05:11:40 12° NW 05:16:47 60° WSW 05:22:19 10° S
Cosmos 1703 Rocket 3.5 05:13:26 10° SSW 05:17:43 57° WNW 05:22:04 10° N
Cosmos 2251 Rocket 3.7 05:13:15 10° NNW 05:18:38 76° ENE 05:24:00 10° SSE
NOSS 2-1 (E) 2.9 05:18:52 28° WSW 05:20:25 55° NW 05:23:26 10° NE
CZ-3 R/B 4.3 05:16:23 10° SSW 05:20:28 13° S 05:23:24 10° SSE
Cosmos 1939 Rocket 3.4 05:17:47 10° N 05:21:16 33° WNW 05:23:42 16° WSW
Lacrosse 5 rocket 2.4 05:20:39 20° NNW 05:21:40 23° N 05:24:26 10° NE
Meteor 2-16 Rocket 4.4 05:16:01 10° SSW 05:22:05 69° WNW 05:28:13 10° N
Cosmos 2173 Rocket 4.4 05:16:43 10° NNW 05:22:12 36° W 05:27:40 10° SSW
Cosmos 2333 Rocket 3.8 05:21:32 16° NW 05:22:47 17° NNW 05:26:24 10° N
Cosmos 2237 Rocket 2.4 05:17:33 10° SSW 05:23:12 75° ESE 05:28:52 10° NNE
USA-17 4.1 05:22:08 26° NW 05:23:45 84° SW 05:27:06 10° SE
SL-08 R/B 4.4 05:19:33 10° NNW 05:25:36 64° W 05:31:40 10° S
Cosmos 2292 Rocket 3.7 05:23:56 10° SSW 05:28:09 68° WNW 05:33:41 10° N
BlueWalker 3 3.2 05:27:40 20° WSW 05:28:40 23° SW 05:31:34 10° SSE
USA 276 3.9 05:29:39 13° SW 05:29:49 13° SW 05:31:14 10° S
COSMOS 2455 4.2 05:28:15 17° WNW 05:30:52 22° NNW 05:35:31 10° NNE
ACS3 Solar Sail 3.1 05:27:45 10° NNW 05:31:18 16° NW 05:32:02 16° WNW
Meteor 1-24 Rocket 3.9 05:27:19 10° SSW 05:32:54 49° WNW 05:38:19 10° N
Helios 1A Rocket 3.0 05:30:21 10° SSW 05:33:29 35° W 05:36:22 12° NNW
Cosmos 2369 Rocket 3.6 05:29:13 10° NNW 05:34:27 36° NE 05:39:40 10° ESE
CZ-4 R/B 3.9 05:31:00 10° N 05:35:49 56° WNW 05:40:31 10° SSW
Cosmos 1782 Rocket 3.7 05:33:38 10° NNW 05:37:54 49° W 05:42:06 10° SSW
USA 234 4.5 05:37:24 10° S 05:42:16 22° SW 05:46:14 13° W
Cosmos 2360 Rocket 3.8 05:40:55 13° WNW 05:42:58 16° NNW 05:46:19 10° N
Cosmos 2322 Rocket 3.9 05:41:21 12° NW 05:43:23 15° NNW 05:46:29 10° N
Cosmos 2123 Rocket 4.3 05:37:49 10° SW 05:43:39 42° WNW 05:49:31 10° N
Meteor 2-5 Rocket 4.1 05:38:26 10° SW 05:44:06 46° WNW 05:49:44 10° N
NOAA 12 4.2 05:39:53 10° N 05:45:05 56° WNW 05:50:17 10° SW
Cosmos 1420 Rocket 4.1 05:40:05 10° SSW 05:45:21 84° ESE 05:50:41 10° NNE
Gbstr 26 Del rocket 3.6 05:41:19 12° WSW 05:46:01 83° NNW 05:52:22 10° ENE
CENTAUR R/B 3.8 05:40:08 10° NW 05:47:54 56° NE 05:56:57 10° ESE
SL-16 R/B 4.2 05:49:07 10° NNW 05:50:16 11° NNW 05:51:25 10° N
ARIANE 5 R/B 4.5 05:45:58 10° NNE 05:50:33 34° E 05:55:08 10° SSE
Cosmos 1943 Rocket 2.9 05:48:18 10° NW 05:53:05 30° WSW 05:57:48 10° SSW
Cosmos 1812 2.1 05:53:59 10° N 05:56:56 76° E 05:59:50 10° SSE
CZ-2C R/B 4.0 05:55:01 10° NNW 05:57:44 15° NW 06:00:30 10° W
Cosmos 1300 Rocket 4.4 05:54:32 10° NNW 05:58:15 28° W 06:01:56 10° SSW
SMAP 4.2 05:54:54 10° NNE 05:59:27 49° E 06:03:57 10° S
Cosmos 2346 Rocket 4.4 05:56:07 10° SSW 06:02:16 69° WNW 06:08:23 10° N
NOSS 2-1 (C) 4.1 06:00:51 11° W 06:03:14 21° NW 06:05:38 10° NNE
NOSS 2-1 (D) 4.2 06:04:54 10° W 06:07:15 19° NW 06:09:31 10° NNE
SJ 16-02 1.3 06:05:56 10° NNW 06:10:13 65° WSW 06:14:27 10° S
Iridium 4 Rocket 4.3 06:07:44 10° NNW 06:10:49 19° WNW 06:13:47 10° WSW
Aureole 3 Rocket 3.4 06:07:05 10° NNW 06:11:14 61° W 06:16:57 10° S
Okean 1 Rocket 4.2 06:07:19 10° N 06:11:34 47° ENE 06:15:43 10° SSE
Cosmos 2061 Rocket 4.5 06:08:16 10° NNW 06:13:54 38° W 06:19:30 10° SSW
CBERS-1 4.0 06:10:08 10° NNE 06:15:16 75° WNW 06:20:21 10° SSW
SWARM A 4.2 06:13:58 10° SSW 06:17:14 60° W 06:20:33 10° N
IRS-1D 4.5 06:15:16 10° N 06:19:15 25° WNW 06:23:12 10° WSW
Cosmos 1190 Rocket 4.5 06:14:40 10° NW 06:19:38 42° WSW 06:24:32 10° S
Cosmos 1378 Rocket 3.5 06:15:36 10° S 06:19:52 86° W 06:24:11 10° N
NOSS 3-1 (C) 4.0 06:15:52 10° W 06:20:27 32° NNW 06:26:02 10° NE
Cosmos 676 Rocket 4.1 06:15:31 10° NNW 06:20:44 65° WSW 06:25:53 10° S
SL-16 R/B 2.8 06:15:51 10° SSW 06:21:27 64° ESE 06:27:06 10° NNE
In-Cosmos 22 Rocket 4.3 06:16:32 10° SSW 06:22:21 72° WNW 06:28:11 10° N
